Date,TemperatureHighF,TemperatureAvgF,TemperatureLowF,DewpointHighF,DewpointAvgF,DewpointLowF,HumidityHigh,HumidityAvg,HumidityLow,PressureMaxIn,PressureMinIn,WindSpeedMaxMPH,WindSpeedAvgMPH,GustSpeedMaxMPH,PrecipitationSumIn
2013-4-1,66,61,57,56,52,50,91,74,61,30.17,30.07,17,6,22,0.00
2013-4-2,66,61,57,56,53,50,87,77,60,30.10,29.99,12,4,15,0.00
2013-4-3,67,61,57,58,56,53,98,83,66,30.09,29.98,14,5,17,0.00
2013-4-4,66,61,58,58,55,54,93,81,68,30.11,30.00,14,6,18,0.00
2013-4-5,67,62,59,58,56,54,97,83,68,30.10,30.00,12,5,16,0.00
2013-4-6,68,62,58,58,56,53,92,80,65,30.08,29.96,12,4,15,0.00
2013-4-7,68,62,59,59,56,54,93,80,63,29.97,29.80,11,4,16,0.00
2013-4-8,69,62,58,57,48,39,91,61,38,29.82,29.67,15,6,23,0.00
2013-4-9,74,63,55,52,43,32,77,51,24,30.00,29.81,19,5,26,0.00
2013-4-10,71,61,52,56,51,45,87,69,45,30.09,29.98,17,4,20,0.00
2013-4-11,68,61,53,57,52,45,85,73,60,30.00,29.79,9,2,13,0.00
2013-4-12,67,62,57,57,54,51,94,76,61,29.90,29.78,15,6,20,0.00
2013-4-13,62,59,56,59,55,51,100,87,77,29.92,29.84,7,2,10,0.00
2013-4-14,64,60,56,55,53,50,90,78,67,29.88,29.83,10,3,16,0.00
2013-4-15,66,61,58,57,53,49,95,75,62,29.91,29.83,12,6,15,0.00
2013-4-16,65,60,53,50,45,29,77,59,29,29.99,29.87,20,6,28,0.00
2013-4-17,71,64,57,49,35,24,63,36,17,30.12,29.98,17,6,22,0.00
2013-4-18,78,67,54,45,33,20,65,32,13,30.20,30.10,12,5,22,0.00
2013-4-19,79,65,53,54,44,32,79,49,19,30.16,29.97,10,3,14,0.00
2013-4-20,70,63,56,62,57,53,100,81,60,30.00,29.88,10,4,13,0.01
2013-4-21,67,62,58,62,58,55,100,89,72,30.02,29.94,8,3,12,0.01
2013-4-22,68,62,58,56,54,52,87,74,62,30.01,29.90,12,4,16,0.00
2013-4-23,69,62,59,57,52,50,85,70,55,29.99,29.86,15,5,20,0.00
2013-4-24,65,61,59,57,54,51,90,78,65,29.98,29.90,10,2,12,0.00
2013-4-25,70,65,60,56,53,50,79,67,54,30.12,29.96,14,4,18,0.00
2013-4-26,71,64,56,58,55,49,89,72,57,30.16,30.09,16,5,21,0.00
2013-4-27,69,63,57,60,58,54,99,84,69,30.15,29.99,16,6,21,0.00
2013-4-28,68,63,59,60,58,56,100,85,69,30.03,29.85,13,4,17,0.00
2013-4-29,68,62,59,60,57,54,100,86,65,29.91,29.79,10,3,13,0.00
2013-4-30,68,62,60,57,55,53,84,77,67,29.90,29.82,9,3,13,0.00